{"data":{"norad_id":62989,"intl_designator":"2025-031J","name":"STARLINK-11573 [DTC]","alt_names":[],"object_type":"PAYLOAD","status":"ACTIVE","operator":null,"country":"US","launch_date":"2025-02-11","launch_site_code":"AFETR","launch_vehicle":null,"mission":null,"orbit_class":"UNKNOWN","rcs_meters":null,"size_class":null,"mass_kg":null,"dimensions":null,"purposes":["comms"],"wikipedia_slug":null,"has_3d_model":false,"image_url":null,"decayed_at":null,"tle_current":{"epoch":"2026-09-21T08:32:17.288160Z","epoch_age_seconds":91013,"freshness":"FRESH","line1":"1 62989U 25031J   26264.35575565  .00173816  00000+0  13277-2 0  9993","line2":"2 62989  42.9995 262.2218 0001637 279.8128  80.2555 15.70880848 93489","mean_motion":15.70880848,"eccentricity":0.0001637,"inclination_deg":42.9995,"raan_deg":262.2218,"arg_perigee_deg":279.8128,"mean_anomaly_deg":80.2555,"bstar":0.0013277,"rev_number":9348,"period_min":91.668314744136,"perigee_km":355.27587271295,"apogee_km":357.48075302638,"semimajor_km":6734.5153128697,"source":"CELESTRAK","updated_at":"2026-09-22T09:00:49.718145Z"}}}